TimePDT,TemperatureF,Dew PointF,Humidity,Sea Level PressureIn,VisibilityMPH,Wind Direction,Wind SpeedMPH,Gust SpeedMPH,PrecipitationIn,Events,Conditions,WindDirDegrees,DateUTC
12:56 AM,51.1,44.1,77,30.02,10.0,South,5.8,-,N/A,,Overcast,170,2012-06-06 07:56:00
1:56 AM,52.0,42.1,69,30.03,10.0,South,6.9,-,N/A,,Overcast,190,2012-06-06 08:56:00
2:56 AM,51.8,39.2,62,30.04,10.0,SSW,6.9,-,N/A,,Overcast,210,2012-06-06 09:56:00
3:56 AM,50.0,37.9,63,30.06,10.0,SW,13.8,-,N/A,,Overcast,220,2012-06-06 10:56:00
4:56 AM,50.0,35.6,58,30.05,10.0,SSW,11.5,19.6,N/A,,Overcast,210,2012-06-06 11:56:00
5:56 AM,50.0,35.1,57,30.06,10.0,South,12.7,-,N/A,,Mostly Cloudy,190,2012-06-06 12:56:00
6:56 AM,50.0,36.0,59,30.07,10.0,South,11.5,-,N/A,,Overcast,190,2012-06-06 13:56:00
7:56 AM,51.8,35.6,54,30.08,10.0,SSW,9.2,-,N/A,,Mostly Cloudy,210,2012-06-06 14:56:00
8:56 AM,54.0,33.1,45,30.09,10.0,SW,10.4,-,N/A,,Overcast,220,2012-06-06 15:56:00
9:56 AM,54.0,33.1,45,30.09,10.0,NNW,4.6,-,N/A,,Overcast,340,2012-06-06 16:56:00
10:56 AM,55.9,32.0,40,30.08,10.0,NNW,5.8,-,N/A,,Overcast,340,2012-06-06 17:56:00
11:56 AM,57.9,34.0,41,30.07,10.0,NNW,6.9,-,N/A,,Overcast,340,2012-06-06 18:56:00
12:56 PM,60.1,33.1,36,30.06,10.0,Variable,4.6,-,N/A,,Mostly Cloudy,0,2012-06-06 19:56:00
1:56 PM,60.8,30.2,31,30.05,10.0,Variable,3.5,-,N/A,,Partly Cloudy,0,2012-06-06 20:56:00
2:56 PM,62.6,30.2,30,30.04,10.0,NW,3.5,-,N/A,,Mostly Cloudy,310,2012-06-06 21:56:00
3:56 PM,64.9,30.9,28,30.03,10.0,Calm,Calm,-,N/A,,Mostly Cloudy,0,2012-06-06 22:56:00
4:56 PM,66.0,30.9,27,30.03,10.0,NE,3.5,-,N/A,,Partly Cloudy,50,2012-06-06 23:56:00
5:56 PM,66.0,33.1,29,30.02,10.0,ENE,8.1,-,N/A,,Clear,70,2012-06-07 00:56:00
6:56 PM,64.4,37.4,37,30.03,10.0,East,9.2,-,N/A,,Clear,90,2012-06-07 01:56:00
7:56 PM,62.1,37.9,41,30.04,10.0,East,6.9,-,N/A,,Clear,100,2012-06-07 02:56:00
8:56 PM,59.0,37.4,45,30.05,10.0,East,8.1,-,N/A,,Clear,80,2012-06-07 03:56:00
9:56 PM,55.9,39.9,55,30.07,10.0,East,3.5,-,N/A,,Clear,90,2012-06-07 04:56:00
10:56 PM,51.1,41.0,68,30.07,10.0,SSE,4.6,-,N/A,,Clear,150,2012-06-07 05:56:00
11:56 PM,48.2,39.2,71,30.06,10.0,SE,4.6,-,N/A,,Clear,130,2012-06-07 06:56:00